Effective Sunday, March 17, 2024, the National Weather Service National Data Buoy Center will discontinue its Dial-A-Buoy Interactive Voice Response system. For more information, see Service Change Notice 24-06 (PDF).

Station RPLV2 - 8632837 - Rappahannock Light, VA Image indicating link to RSS feed of recent meteorological observations for station RPLV2


Conditions at RPLV2 as of
(10:54 pm EST on 02/24/2024)
0354 GMT on 02/25/2024:
     

Click on the graph icon in the table below to see a time series plot of the last five days of that observation.

5-day plot - Wind Direction Wind Direction (WDIR): N ( 360 deg true )
5-day plot - Wind Speed Wind Speed (WSPD): 25.1 kts
5-day plot - Wind Gust Wind Gust (GST): 29.9 kts
5-day plot - Atmospheric Pressure Atmospheric Pressure (PRES):30.02 in
5-day plot - Wind Speed at 10 Meters Wind Speed at 10 meters (WSPD10M): 23.3 kts
5-day plot - Wind Speed at 20 Meters Wind Speed at 20 meters (WSPD20M): 25.3 kts
5-day plot -  Wind Speed, Wind Gust and Atmospheric Pressure Combined plot of Wind Speed, Gust, and Air Pressure
NOS Water Level Observation Network Water Level
Previous observations
TIME
(EST)
5-day plot - Wind Direction
WDIR
 
5-day plot - Wind Speed
WSPD
kts
5-day plot - Wind Gust
GST
kts
5-day plot - Wave Height
WVHT
ft
5-day plot - Dominant Wave Period
DPD
sec
5-day plot - Average Wave Period
APD
sec
5-day plot - Mean Wave Direction
MWD
 
5-day plot - Atmospheric Pressure
PRES
in
5-day plot - Pressure Tendency
PTDY
in
5-day plot - Air Temperature
ATMP
°F
5-day plot - Water Temperature
WTMP
°F
5-day plot - Dew Point
DEWP
°F
5-day plot - Salinity
SAL
psu
5-day plot - Visibility
VIS
nmi
5-day plot - Tide (above MLLW)
TIDE
ft
2024-02-24 10:48 pm N 26.0 29.9----30.01-------
2024-02-24 10:42 pm N 25.1 28.9----30.01-------
2024-02-24 10:36 pm N 27.0 31.1----30.01-------
2024-02-24 10:30 pm N 27.0 29.9----30.00-------
2024-02-24 10:24 pm N 22.9 26.0----30.00-------
2024-02-24 10:18 pm N 22.0 27.0------------
2024-02-24 10:12 pm N 25.1 28.0------------
2024-02-24 10:06 pm N 26.0 28.9------------
2024-02-24 10:00 pm N 24.1 26.0----29.98+0.09------
2024-02-24 09:54 pm N 22.0 25.1----29.98-------
2024-02-24 09:48 pm N 22.0 25.1----29.98-------
2024-02-24 09:42 pmNNE 12.0 14.0----29.98-------
2024-02-24 09:36 pmNNE 11.1 12.0----29.98-------
2024-02-24 09:30 pm NE 7.0 8.0----29.97-------
2024-02-24 09:24 pm W 2.9 2.9----29.97-------
2024-02-24 09:18 pmWSW 2.9 2.9----29.97-------
2024-02-24 09:12 pm SW 1.9 2.9----29.96-------
2024-02-24 09:06 pm SW 1.0 1.9----29.96-------
2024-02-24 09:00 pm-------29.96+0.12------
2024-02-24 08:54 pm-------29.96-------
2024-02-24 08:48 pmSSW 6.0 6.0----29.96-------
2024-02-24 08:42 pmSSW 2.9 4.1----29.95-------
2024-02-24 08:36 pmSSE 2.9 4.1----29.95-------
2024-02-24 08:30 pm S 2.9 4.1----29.94-------
2024-02-24 08:24 pm S 4.1 4.1----29.94-------
2024-02-24 08:18 pm S 2.9 4.1----29.94-------
2024-02-24 08:12 pm S 2.9 4.1----29.93-------
2024-02-24 08:06 pmSSE 2.9 5.1----29.93-------
2024-02-24 08:00 pm S 5.1 5.1----29.93-------
2024-02-24 07:54 pm S 5.1 5.1----29.92-------
2024-02-24 07:48 pm S 5.1 6.0----29.92-------
2024-02-24 07:42 pm S 5.1 6.0----29.92-------
2024-02-24 07:36 pm S 5.1 6.0----29.91-------
2024-02-24 07:30 pmSSE 5.1 6.0----29.91-------
2024-02-24 07:24 pmSSE 6.0 6.0----29.90-------
2024-02-24 07:18 pmSSE 6.0 6.0----29.90-------
2024-02-24 07:12 pmSSE 6.0 7.0----29.90-------
2024-02-24 07:06 pmSSE 6.0 7.0----29.89-------
2024-02-24 07:00 pmSSE 7.0 7.0----29.89+0.11------
2024-02-24 06:54 pm SE 6.0 6.0----29.89-------
2024-02-24 06:48 pm SE 6.0 7.0----29.88-------
2024-02-24 06:42 pm SE 6.0 7.0----29.88-------
2024-02-24 06:36 pmESE 6.0 7.0----29.87-------
2024-02-24 06:30 pmESE 7.0 7.0----29.87-------
2024-02-24 06:24 pmESE 7.0 8.0----29.86-------
2024-02-24 06:00 pm SE 6.0 8.9----29.84+0.08------
2024-02-24 05:42 pm NE 6.0 7.0----29.83-------
2024-02-24 05:36 pm NE 7.0 8.0----29.83-------
2024-02-24 05:30 pm NE 8.0 8.0----29.82-------
2024-02-24 05:24 pm NE 7.0 8.0----29.82-------
2024-02-24 05:18 pm NE 8.0 8.9----29.81-------
2024-02-24 04:18 pm NE 8.9 11.1----29.79-------
2024-02-24 04:12 pm NE 9.9 11.1----29.78-------
2024-02-24 04:06 pm NE 9.9 11.1----29.78-------
2024-02-24 04:00 pm-------29.78+0.03------
2024-02-24 03:54 pm-------29.78-------
2024-02-24 03:48 pm NE 8.9 9.9----29.78-------
2024-02-24 03:42 pm NE 8.0 9.9----29.78-------
2024-02-24 03:36 pm NE 8.9 11.1----29.77-------
2024-02-24 03:30 pm NE 9.9 12.0------------
2024-02-24 03:24 pmNNE 11.1 12.0------------
2024-02-24 03:18 pm-------29.77-------
2024-02-24 03:12 pm-------29.77-------
2024-02-24 03:06 pm-------29.76-------
2024-02-24 03:00 pmNNE 8.9 9.9----29.76+0.02------
2024-02-24 02:54 pmNNE 8.9 9.9----29.76-------
2024-02-24 02:48 pmNNE 8.9 9.9----29.76-------
2024-02-24 02:42 pmNNE 8.0 8.9----29.76-------
2024-02-24 02:36 pmNNE 8.9 9.9----29.76-------
2024-02-24 02:30 pmNNE 8.9 9.9----29.76-------
2024-02-24 02:24 pmNNE 8.9 9.9----29.76-------
2024-02-24 02:18 pmNNE 8.9 9.9----29.76-------
2024-02-24 02:12 pm N 8.9 9.9----29.76-------
2024-02-24 02:06 pmNNE 9.9 11.1----29.76-------
2024-02-24 02:00 pmNNE 8.9 11.1----29.75+0.01------
2024-02-24 01:54 pmNNE 8.9 11.1----29.75-------
2024-02-24 01:48 pmNNE 9.9 12.0----29.75-------
2024-02-24 01:42 pmNNE 11.1 12.0----29.75-------
2024-02-24 01:36 pmNNE 9.9 12.0----29.75-------
2024-02-24 01:30 pm N 11.1 12.0----29.75-------
2024-02-24 01:24 pm N 11.1 12.0----29.75-------
2024-02-24 01:18 pm N 11.1 13.0----29.75-------
2024-02-24 01:12 pm N 12.0 14.0----29.75-------
2024-02-24 01:06 pm N 14.0 15.0----29.75-------
2024-02-24 01:00 pm N 14.0 15.0----29.75-------
2024-02-24 12:54 pmNNW 14.0 15.9----29.75-------
2024-02-24 12:48 pmNNW 14.0 15.9----29.75-------
2024-02-24 12:42 pmNNW 14.0 17.1----29.75-------
2024-02-24 12:36 pmNNW 15.0 17.1----29.74-------
2024-02-24 12:30 pmNNW 15.0 18.1----29.74-------
2024-02-24 12:24 pmNNW 15.9 18.1----29.74-------
2024-02-24 12:18 pmNNW 15.0 17.1----29.75-------
2024-02-24 12:12 pmNNW 15.9 18.1----29.75-------
2024-02-24 12:06 pmNNW 15.0 15.9----29.75-------
2024-02-24 12:00 pmNNW 14.0 15.0----29.75+0.03------
2024-02-24 11:54 amNNW 13.0 15.0----29.74-------
2024-02-24 11:48 amNNW 12.0 14.0----29.75-------
2024-02-24 11:42 amNNW 13.0 14.0----29.75-------
2024-02-24 11:36 amNNW 12.0 15.0----29.75-------
2024-02-24 11:30 amNNW 14.0 15.9----29.75-------
2024-02-24 11:24 amNNW 15.0 15.9----29.75-------
2024-02-24 11:18 amNNW 13.0 14.0------------
2024-02-24 11:12 amNNW 13.0 15.9------------
2024-02-24 11:06 amNNW 14.0 17.1------------
2024-02-24 11:00 amNNW 15.0 18.1----29.74+0.04------
2024-02-24 10:54 amNNW 15.0 18.1----29.74-------
2024-02-24 10:48 amNNW 15.0 17.1----29.74-------
2024-02-24 10:42 amNNW 14.0 15.9----29.74-------
2024-02-24 10:36 amNNW 13.0 15.0----29.74-------
2024-02-24 10:30 amNNW 13.0 15.9----29.74-------
2024-02-24 10:24 amNNW 14.0 17.1----29.74-------
2024-02-24 10:18 amNNW 14.0 18.1----29.74-------
2024-02-24 10:12 amNNW 15.9 19.0----29.74-------
2024-02-24 10:06 amNNW 17.1 19.0----29.73-------
2024-02-24 10:00 amNNW 15.0 15.9------------
2024-02-24 09:54 amNNW 15.0 17.1------------
2024-02-24 09:48 amNNW 14.0 17.1----29.73-------
2024-02-24 09:42 amNNW 14.0 15.0----29.72-------
2024-02-24 09:36 amNNW 13.0 15.0----29.72-------
2024-02-24 09:30 amNNW 12.0 14.0----29.72-------
2024-02-24 09:24 amNNW 11.1 12.0----29.72-------
2024-02-24 09:18 amNNW 9.9 11.1----29.72-------
2024-02-24 09:12 am NW 11.1 12.0----29.72-------
2024-02-24 09:06 am NW 8.9 11.1----29.72-------
2024-02-24 09:00 am NW 8.9 11.1----29.72+0.06------
2024-02-24 08:54 amWNW 8.9 9.9----29.72-------
2024-02-24 08:48 amWNW 8.0 9.9------------
2024-02-24 08:42 amWNW 8.9 9.9------------
2024-02-24 08:36 amWNW 8.9 9.9------------
2024-02-24 08:30 amWNW 8.9 9.9----29.71-------
2024-02-24 08:24 amWNW 8.9 8.9----29.70-------
2024-02-24 08:18 amWNW 8.9 8.9----29.70-------
2024-02-24 08:12 amWNW 8.0 8.9----29.70-------
2024-02-24 08:06 amWNW 8.0 8.9----29.70-------
2024-02-24 08:00 amWNW 7.0 8.0----29.70+0.07------
2024-02-24 07:54 amWNW 7.0 8.0----29.69-------
2024-02-24 07:48 amWNW 7.0 8.0----29.69-------
2024-02-24 07:42 am W 6.0 7.0----29.69-------
2024-02-24 07:36 am W 5.1 6.0----29.69-------
2024-02-24 07:30 amWNW 6.0 6.0----29.68-------
2024-02-24 07:24 am W 5.1 6.0----29.68-------
2024-02-24 07:18 am W 5.1 7.0----29.68-------
2024-02-24 07:12 am W 6.0 7.0----29.68-------
2024-02-24 07:06 am W 7.0 7.0----29.68-------
2024-02-24 07:00 am W 7.0 7.0----29.68+0.06------
2024-02-24 06:54 am W 7.0 8.0----29.67-------
2024-02-24 06:48 am W 8.0 8.0----29.67-------
2024-02-24 06:42 am W 8.0 8.0----29.67-------
2024-02-24 06:36 amWNW 5.1 5.1----29.66-------
2024-02-24 06:30 amWNW 4.1 5.1----29.66-------
2024-02-24 06:24 amWNW 5.1 7.0----29.66-------
2024-02-24 06:18 am W 7.0 8.0----29.66-------
2024-02-24 06:12 am W 8.0 8.9----29.66-------
2024-02-24 06:06 am W 8.0 8.0----29.66-------
2024-02-24 06:00 am-------29.65-------
2024-02-24 05:54 am-------29.65-------
2024-02-24 05:48 am W 8.0 8.0----29.65-------
2024-02-24 05:42 am W 8.0 8.9----29.65-------
2024-02-24 05:36 am W 8.0 8.9----29.65-------
2024-02-24 05:30 am W 8.0 8.9----29.64-------
2024-02-24 05:24 am W 8.0 8.9----29.64-------
2024-02-24 05:18 am-------29.64-------
2024-02-24 05:12 am-------29.64-------
2024-02-24 05:06 am-------29.63-------
2024-02-24 05:00 am-------29.63+0.03------
2024-02-24 04:54 am-------29.63-------
2024-02-24 04:48 amWSW 6.0 7.0----29.62-------
2024-02-24 04:42 amWSW 7.0 8.0----29.62-------
2024-02-24 04:36 amWSW 8.0 8.9----29.62-------
2024-02-24 04:30 am SW 7.0 8.0------------
2024-02-24 04:24 am SW 5.1 7.0------------
2024-02-24 04:18 am SW 6.0 7.0----29.62-------
2024-02-24 04:12 am SW 6.0 8.0----29.61-------
2024-02-24 04:06 amWSW 8.0 8.9----29.61-------
2024-02-24 04:00 amWSW 8.9 9.9----29.61+0.03------
2024-02-24 03:54 amWSW 8.9 9.9----29.61-------
2024-02-24 03:48 amWSW 5.1 7.0----29.60-------
2024-02-24 03:42 amWSW 6.0 7.0----29.60-------
2024-02-24 03:36 amWSW 6.0 7.0----29.60-------
2024-02-24 03:30 amWSW 6.0 7.0----29.60-------
2024-02-24 03:24 amWSW 7.0 8.0----29.60-------
2024-02-24 03:18 amWSW 7.0 8.0----29.60-------
2024-02-24 03:12 amWSW 7.0 7.0----29.60-------
2024-02-24 03:06 amWSW 7.0 8.0----29.60-------
2024-02-24 03:00 amWSW 7.0 8.0------------
2024-02-24 02:54 am W 8.0 8.0------------
2024-02-24 02:48 am W 8.0 8.9----29.60-------
2024-02-24 02:42 am W 8.0 9.9----29.60-------
2024-02-24 02:36 am W 9.9 13.0----29.60-------
2024-02-24 02:30 am W 9.9 12.0----29.60-------
2024-02-24 02:24 am W 9.9 11.1----29.60-------
2024-02-24 02:18 am W 9.9 12.0----29.60-------
2024-02-24 02:12 am W 11.1 12.0----29.60-------
2024-02-24 02:06 am W 12.0 14.0----29.60-------
2024-02-24 02:00 am-------29.60+0.02------
2024-02-24 01:54 am-------29.60-------
2024-02-24 01:48 am W 12.0 12.0----29.60-------
2024-02-24 01:42 am W 9.9 11.1----29.60-------
2024-02-24 01:36 am W 8.9 11.1----29.59-------
2024-02-24 01:30 am-------29.59-------
2024-02-24 01:24 am-------29.59-------
2024-02-24 01:18 am W 11.1 12.0----29.59-------
2024-02-24 01:12 am W 11.1 12.0----29.59-------
2024-02-24 01:06 am W 11.1 12.0----29.59-------
2024-02-24 01:00 am W 9.9 11.1----29.59+0.00------
2024-02-24 12:54 am W 8.9 9.9----29.58-------
2024-02-24 12:48 am W 8.9 11.1----29.58-------
2024-02-24 12:42 am W 9.9 11.1----29.58-------
2024-02-24 12:36 am W 11.1 12.0----29.58-------
2024-02-24 12:30 am W 11.1 12.0----29.58-------
2024-02-24 12:24 am W 11.1 12.0----29.58-------
2024-02-24 12:18 am W 9.9 11.1----29.58-------
2024-02-24 12:12 am W 8.9 9.9----29.58-------
2024-02-24 12:06 am W 8.9 9.9----29.57-------
2024-02-24 12:00 am W 8.9 11.1----29.57+0.00------
2024-02-23 11:54 pm W 9.9 11.1----29.57-------
2024-02-23 11:48 pm W 9.9 11.1----29.57-------
2024-02-23 11:42 pm W 8.9 11.1----29.57-------
2024-02-23 11:36 pm W 9.9 11.1----29.58-------
2024-02-23 11:30 pm W 11.1 14.0----29.58-------
2024-02-23 11:24 pmWNW 11.1 13.0----29.58-------
2024-02-23 11:18 pmWNW 9.9 11.1----29.58-------
2024-02-23 11:12 pm W 9.9 12.0----29.57-------
2024-02-23 11:06 pm W 11.1 12.0----29.58-------
2024-02-23 11:00 pm W 12.0 12.0----29.58+0.02------
2024-02-23 10:54 pm W 8.9 11.1----29.57-------